M I D A S
Marine Information and Data Acquisition System
Tripno 1824 of the Zeeleeuw from 2009-12-10 09:05:04 to 2009-12-10 17:14:51
Back to CruiseResearch ActivitiesStationsMapUnderway DataData graphs

EquipmentUnitsComments
TimeDGPSUTC
LatitudeDGPSDM.mWGS84
LongitudeDGPSDM.mWGS84
SpeedMeteo Stationm/sRelative wind speed
DirectionMeteo StationdegRelative wind direction
TemperatureMeteo Stationdeg CelciusAir temperature
PressureMeteo StationPaAtmospheric pressure
HumidityMeteo Station%Relative humidity
Missing or incorrect values are displayed as -999
Metereological data collected by the RV Zeeleeuw from 2009-12-10 09:10:59 to 2009-12-10 17:22:13
                                                                                    Next 1000 lines
Time Latitude Longitude Speed Direction Temperature Pressure Humidity
2009-12-10 09:11:08 51°13.662 2°55.955 5.3 25 10.5 102390 41
2009-12-10 09:11:14 51°13.663 2°55.952 4.4 52 10.5 102390 41
2009-12-10 09:11:19 51°13.664 2°55.948 4.8 28 10.5 102390 43
2009-12-10 09:11:24 51°13.665 2°55.944 4.6 56 10.5 102390 43
2009-12-10 09:11:30 51°13.667 2°55.939 3.6 20 10.5 102390 42
2009-12-10 09:11:35 51°13.668 2°55.934 4.7 57 10.5 102390 42
2009-12-10 09:11:41 51°13.67 2°55.928 3 20 10.5 102390 44
2009-12-10 09:11:47 51°13.672 2°55.921 6.4 51 10.5 102390 44
2009-12-10 09:11:52 51°13.674 2°55.915 7.5 22 10.5 102400 41
2009-12-10 09:11:57 51°13.676 2°55.909 9.7 58 10.5 102400 41
2009-12-10 09:12:02 51°13.678 2°55.902 7.4 22 10.6 102390 42
2009-12-10 09:12:07 51°13.68 2°55.895 4.9 51 10.6 102390 42
2009-12-10 09:12:12 51°13.682 2°55.887 10 26 10.6 102390 42
2009-12-10 09:12:17 51°13.684 2°55.879 10.6 58 10.6 102390 42
2009-12-10 09:12:23 51°13.687 2°55.869 8.4 28 10.5 102400 41
2009-12-10 09:12:27 51°13.689 2°55.862 5.8 55 10.5 102400 41
2009-12-10 09:12:32 51°13.692 2°55.854 7.1 21 10.6 102400 43
2009-12-10 09:12:37 51°13.695 2°55.845 6 55 10.6 102400 43
2009-12-10 09:12:43 51°13.699 2°55.835 6.2 19 10.6 102400 41
2009-12-10 09:12:47 51°13.701 2°55.829 4.9 56 10.6 102400 41
2009-12-10 09:12:52 51°13.705 2°55.82 5.3 25 10.6 102390 41
2009-12-10 09:12:58 51°13.709 2°55.811 4 52 10.6 102390 41
2009-12-10 09:13:03 51°13.712 2°55.803 4.9 29 10.6 102390 42
2009-12-10 09:13:07 51°13.715 2°55.796 3.5 51 10.6 102390 42
2009-12-10 09:13:12 51°13.718 2°55.788 3.4 22 10.6 102400 44
2009-12-10 09:13:18 51°13.722 2°55.778 4.7 55 10.6 102400 44
2009-12-10 09:13:23 51°13.726 2°55.771 6.7 26 10.7 102390 42
2009-12-10 09:13:27 51°13.729 2°55.764 6.2 57 10.7 102390 42
2009-12-10 09:13:32 51°13.732 2°55.757 6.5 23 10.8 102400 42
2009-12-10 09:13:37 51°13.736 2°55.749 6.9 56 10.8 102400 42
2009-12-10 09:13:43 51°13.741 2°55.74 6.3 24 10.8 102400 44
2009-12-10 09:13:47 51°13.744 2°55.735 6.4 53 10.8 102400 44
2009-12-10 09:13:52 51°13.747 2°55.728 5.6 22 10.8 102390 43
2009-12-10 09:13:57 51°13.751 2°55.721 7 55 10.8 102390 43
2009-12-10 09:14:02 51°13.755 2°55.714 6.3 22 10.8 102390 42
2009-12-10 09:14:07 51°13.759 2°55.708 6.3 57 10.8 102390 42
2009-12-10 09:14:12 51°13.764 2°55.701 6.2 25 10.8 102390 41
2009-12-10 09:14:17 51°13.768 2°55.695 5.6 55 10.8 102390 41
2009-12-10 09:14:22 51°13.772 2°55.689 8.3 24 10.8 102380 44
2009-12-10 09:14:27 51°13.777 2°55.683 6.4 53 10.8 102380 44
2009-12-10 09:14:32 51°13.782 2°55.678 7.9 22 10.8 102390 42
2009-12-10 09:14:38 51°13.788 2°55.671 10.7 54 10.8 102390 42
2009-12-10 09:14:42 51°13.793 2°55.667 9 20 10.8 102380 41
2009-12-10 09:14:47 51°13.798 2°55.662 8.8 55 10.8 102380 41
2009-12-10 09:14:52 51°13.804 2°55.657 8.4 43 10.8 102390 43
2009-12-10 09:14:58 51°13.811 2°55.652 8.1 54 10.8 102390 43
2009-12-10 09:15:03 51°13.817 2°55.648 6.9 27 10.8 102390 42
2009-12-10 09:15:07 51°13.822 2°55.645 9.3 52 10.8 102390 42
2009-12-10 09:15:12 51°13.829 2°55.641 9.3 42 10.7 102380 41
2009-12-10 09:15:18 51°13.837 2°55.637 8.2 34 10.7 102380 41
2009-12-10 09:15:23 51°13.843 2°55.634 6.5 24 10.7 102390 42
2009-12-10 09:15:27 51°13.849 2°55.632 6.2 51 10.7 102390 42
2009-12-10 09:15:32 51°13.855 2°55.63 7.2 27 10.7 102390 42
2009-12-10 09:15:38 51°13.863 2°55.627 7.5 42 10.7 102390 42
2009-12-10 09:15:43 51°13.869 2°55.626 8.8 33 10.7 102380 41
2009-12-10 09:15:47 51°13.874 2°55.625 7.2 51 10.7 102380 41
2009-12-10 09:15:52 51°13.88 2°55.624 10.7 20 10.7 102390 43
2009-12-10 09:15:57 51°13.885 2°55.624 7.4 31 10.7 102390 43
2009-12-10 09:16:03 51°13.891 2°55.623 7.6 33 10.7 102380 41
2009-12-10 09:16:07 51°13.896 2°55.624 8.8 36 10.7 102380 41
2009-12-10 09:16:12 51°13.9 2°55.624 5.4 32 10.6 102390 43
2009-12-10 09:16:17 51°13.905 2°55.625 5.9 45 10.6 102390 43
2009-12-10 09:16:23 51°13.911 2°55.626 8 40 10.6 102380 41
2009-12-10 09:16:27 51°13.914 2°55.626 8.3 30 10.6 102380 41
2009-12-10 09:16:32 51°13.918 2°55.627 6.1 22 10.6 102380 43
2009-12-10 09:16:37 51°13.922 2°55.628 6.1 34 10.6 102380 43
2009-12-10 09:16:42 51°13.925 2°55.629 5.7 20 10.6 102390 44
2009-12-10 09:16:47 51°13.929 2°55.631 8.9 29 10.6 102390 44
2009-12-10 09:16:52 51°13.932 2°55.632 9.5 26 10.6 102390 43
2009-12-10 09:16:57 51°13.934 2°55.633 6.1 35 10.6 102390 43
2009-12-10 09:17:02 51°13.935 2°55.633 9.1 18 10.6 102390 42
2009-12-10 09:17:07 51°13.935 2°55.633 8.5 19 10.6 102390 42
2009-12-10 09:17:12 51°13.935 2°55.632 10.1 17 10.6 102390 41
2009-12-10 09:17:16 51°13.934 2°55.632 9.9 17 10.6 102390 41
2009-12-10 09:17:21 51°13.934 2°55.632 12.2 17 10.6 102390 43
2009-12-10 09:17:26 51°13.934 2°55.632 9.1 16 10.6 102390 43
2009-12-10 09:17:31 51°13.934 2°55.633 10.6 16 10.5 102390 42
2009-12-10 09:17:36 51°13.935 2°55.635 10.4 6 10.5 102390 42
2009-12-10 09:17:40 51°13.935 2°55.636 6.6 3 10.5 102390 42
2009-12-10 09:17:45 51°13.936 2°55.639 10.9 5 10.5 102390 42
2009-12-10 09:17:50 51°13.936 2°55.642 11.2 4 10.5 102370 43
2009-12-10 09:17:55 51°13.937 2°55.644 11.5 10 10.5 102370 43
2009-12-10 09:18:00 51°13.937 2°55.646 10 5 10.5 102390 43
2009-12-10 09:18:05 51°13.936 2°55.646 6.6 359 10.5 102390 43
2009-12-10 09:18:10 51°13.935 2°55.644 7.5 360 10.5 102380 43
2009-12-10 09:18:15 51°13.933 2°55.642 7.5 3 10.5 102380 43
2009-12-10 09:18:20 51°13.932 2°55.639 10.8 -999 10.5 102370 41
2009-12-10 09:18:24 51°13.931 2°55.636 9.4 353 10.5 102370 41
2009-12-10 09:18:29 51°13.93 2°55.631 10.9 352 10.5 102380 41
2009-12-10 09:18:34 51°13.93 2°55.626 9.1 346 10.5 102380 41
2009-12-10 09:18:39 51°13.93 2°55.619 11 344 10.5 102380 43
2009-12-10 09:18:44 51°13.931 2°55.611 12.4 338 10.5 102380 43
2009-12-10 09:18:48 51°13.933 2°55.606 11 328 10.5 102380 41
2009-12-10 09:18:54 51°13.936 2°55.597 12.5 304 10.5 102380 41
2009-12-10 09:18:59 51°13.94 2°55.59 9.7 320 10.5 102380 41
2009-12-10 09:19:04 51°13.945 2°55.584 9.1 286 10.5 102380 41
2009-12-10 09:19:09 51°13.95 2°55.579 11.9 322 10.5 102370 43
2009-12-10 09:19:14 51°13.956 2°55.574 12.1 302 10.5 102370 43
2009-12-10 09:19:18 51°13.96 2°55.57 15.3 320 10.5 102380 41
2009-12-10 09:19:24 51°13.968 2°55.564 10.6 305 10.5 102380 41
2009-12-10 09:19:28 51°13.974 2°55.559 13.5 24 10.5 102360 43
2009-12-10 09:19:34 51°13.983 2°55.551 9.4 307 10.5 102360 43
2009-12-10 09:19:39 51°13.99 2°55.544 9.4 320 10.5 102350 42
2009-12-10 09:19:44 51°13.999 2°55.536 10.8 323 10.5 102350 42
2009-12-10 09:19:49 51°14.008 2°55.528 10.7 326 10.5 102360 42
2009-12-10 09:19:54 51°14.017 2°55.521 12.8 306 10.5 102360 42
2009-12-10 09:19:59 51°14.026 2°55.512 12.9 327 10.5 102370 43
2009-12-10 09:20:04 51°14.036 2°55.504 14.9 303 10.5 102370 43
2009-12-10 09:20:09 51°14.046 2°55.495 13.9 321 10.5 102370 43
2009-12-10 09:20:14 51°14.056 2°55.487 14.7 324 10.5 102370 43
2009-12-10 09:20:19 51°14.066 2°55.478 16.4 318 10.5 102360 42
2009-12-10 09:20:24 51°14.076 2°55.468 16.2 303 10.5 102360 42
2009-12-10 09:20:29 51°14.087 2°55.459 15.4 321 10.5 102370 43
2009-12-10 09:20:33 51°14.095 2°55.451 17 307 10.5 102370 43
2009-12-10 09:20:39 51°14.108 2°55.439 16.6 317 10.5 102370 43
2009-12-10 09:20:44 51°14.119 2°55.429 17.9 307 10.5 102370 43
2009-12-10 09:20:49 51°14.129 2°55.418 17.9 319 10.5 102370 42
2009-12-10 09:20:54 51°14.14 2°55.407 16.7 304 10.5 102370 42
2009-12-10 09:20:58 51°14.148 2°55.398 17.3 321 10.5 102360 42
2009-12-10 09:21:04 51°14.161 2°55.384 15.7 305 10.5 102360 42
2009-12-10 09:21:09 51°14.172 2°55.372 16.6 322 10.5 102350 42
2009-12-10 09:21:14 51°14.182 2°55.359 14.8 306 10.5 102350 42
2009-12-10 09:21:19 51°14.193 2°55.347 14.5 323 10.5 102370 42
2009-12-10 09:21:25 51°14.205 2°55.33 16.1 280 10.5 102370 42
2009-12-10 09:21:30 51°14.215 2°55.316 16 322 10.5 102380 43
2009-12-10 09:21:34 51°14.223 2°55.305 17.3 305 10.5 102380 43
2009-12-10 09:21:39 51°14.233 2°55.29 18.6 327 10.5 102380 42
2009-12-10 09:21:44 51°14.243 2°55.274 17.7 324 10.5 102380 42
2009-12-10 09:21:49 51°14.252 2°55.258 17.4 326 10.5 102380 41
2009-12-10 09:21:54 51°14.261 2°55.241 17.7 326 10.5 102380 41
2009-12-10 09:21:58 51°14.269 2°55.227 16.7 325 10.4 102380 42
2009-12-10 09:22:04 51°14.28 2°55.206 17 327 10.4 102380 42
2009-12-10 09:22:09 51°14.289 2°55.188 18.6 324 10.4 102370 43
2009-12-10 09:22:14 51°14.299 2°55.17 18.1 326 10.4 102370 43
2009-12-10 09:22:19 51°14.308 2°55.153 16.4 326 10.5 102380 43
2009-12-10 09:22:24 51°14.318 2°55.134 16.2 327 10.5 102380 43
2009-12-10 09:22:29 51°14.327 2°55.116 16.5 325 10.5 102370 43
2009-12-10 09:22:34 51°14.337 2°55.098 16.6 328 10.5 102370 43
2009-12-10 09:22:39 51°14.347 2°55.08 16.4 327 10.5 102370 42
2009-12-10 09:22:44 51°14.356 2°55.062 17 327 10.5 102370 42
2009-12-10 09:22:49 51°14.365 2°55.043 16.5 325 10.5 102370 43
2009-12-10 09:22:54 51°14.374 2°55.025 17 325 10.5 102370 43
2009-12-10 09:22:59 51°14.384 2°55.008 17.6 325 10.5 102380 43
2009-12-10 09:23:04 51°14.394 2°54.991 18.5 327 10.5 102380 43
2009-12-10 09:23:09 51°14.403 2°54.973 17.5 326 10.5 102370 43
2009-12-10 09:23:14 51°14.413 2°54.957 16.8 323 10.5 102370 43
2009-12-10 09:23:18 51°14.422 2°54.944 16 321 10.5 102380 43
2009-12-10 09:23:24 51°14.436 2°54.928 17.3 306 10.5 102380 43
2009-12-10 09:23:29 51°14.448 2°54.916 18.1 318 10.5 102370 42
2009-12-10 09:23:33 51°14.458 2°54.908 17.3 305 10.5 102370 42
2009-12-10 09:23:38 51°14.472 2°54.899 15.4 319 10.5 102380 42
2009-12-10 09:23:44 51°14.487 2°54.888 17.8 304 10.5 102380 42
2009-12-10 09:23:49 51°14.5 2°54.879 17 318 10.5 102360 42
2009-12-10 09:23:54 51°14.514 2°54.87 17.6 307 10.5 102360 42
2009-12-10 09:23:59 51°14.527 2°54.861 16.6 317 10.5 102350 43
2009-12-10 09:24:04 51°14.54 2°54.851 15.5 309 10.5 102350 43
2009-12-10 09:24:09 51°14.553 2°54.841 14.7 320 10.5 102370 43
2009-12-10 09:24:14 51°14.566 2°54.831 15.4 304 10.5 102370 43
2009-12-10 09:24:19 51°14.579 2°54.821 14.4 319 10.5 102360 42
2009-12-10 09:24:24 51°14.592 2°54.811 16.5 307 10.5 102360 42
2009-12-10 09:24:29 51°14.604 2°54.801 15.1 320 10.5 102370 41
2009-12-10 09:24:34 51°14.618 2°54.792 16 306 10.5 102370 41
2009-12-10 09:24:39 51°14.63 2°54.78 15.9 321 10.5 102390 43
2009-12-10 09:24:44 51°14.643 2°54.77 15.7 303 10.5 102390 43
2009-12-10 09:24:49 51°14.655 2°54.759 15 321 10.5 102380 43
2009-12-10 09:24:54 51°14.669 2°54.749 15.3 303 10.5 102380 43
2009-12-10 09:24:59 51°14.681 2°54.738 16.4 321 10.5 102380 43
2009-12-10 09:25:04 51°14.694 2°54.727 16.5 304 10.5 102380 43
2009-12-10 09:25:09 51°14.707 2°54.716 16 320 10.5 102380 43
2009-12-10 09:25:14 51°14.721 2°54.705 15 306 10.5 102380 43
2009-12-10 09:25:19 51°14.734 2°54.695 14.6 320 10.5 102380 43
2009-12-10 09:25:24 51°14.746 2°54.684 15.5 305 10.5 102380 43
2009-12-10 09:25:29 51°14.759 2°54.676 15.9 320 10.5 102380 42
2009-12-10 09:25:35 51°14.774 2°54.663 17.6 307 10.5 102380 42
2009-12-10 09:25:40 51°14.787 2°54.654 17.5 319 10.5 102380 43
2009-12-10 09:25:45 51°14.799 2°54.643 16.7 282 10.5 102380 43
2009-12-10 09:25:50 51°14.812 2°54.633 18.6 319 10.5 102400 43
2009-12-10 09:25:54 51°14.822 2°54.624 17.6 304 10.5 102400 43
2009-12-10 09:25:59 51°14.835 2°54.614 19.5 319 10.5 102370 43
2009-12-10 09:26:04 51°14.847 2°54.605 16.7 304 10.5 102370 43
2009-12-10 09:26:10 51°14.861 2°54.593 16.1 321 10.5 102380 43
2009-12-10 09:26:15 51°14.873 2°54.582 16.4 309 10.5 102380 43
2009-12-10 09:26:20 51°14.885 2°54.573 17.7 319 10.5 102380 43
2009-12-10 09:26:25 51°14.897 2°54.562 17.2 309 10.5 102380 43
2009-12-10 09:26:30 51°14.909 2°54.553 15.6 316 10.5 102380 42
2009-12-10 09:26:35 51°14.922 2°54.543 17 304 10.5 102380 42
2009-12-10 09:26:39 51°14.931 2°54.535 16.8 318 10.5 102380 42
2009-12-10 09:26:44 51°14.944 2°54.525 15.1 305 10.5 102380 42
2009-12-10 09:26:49 51°14.956 2°54.514 18.3 319 10.5 102380 42
2009-12-10 09:26:54 51°14.969 2°54.504 16.6 304 10.5 102380 42
2009-12-10 09:26:59 51°14.981 2°54.494 17.4 319 10.4 102370 43
2009-12-10 09:27:04 51°14.994 2°54.483 19 307 10.4 102370 43
2009-12-10 09:27:09 51°15.006 2°54.472 16.7 319 10.5 102370 42
2009-12-10 09:27:14 51°15.019 2°54.462 18.1 307 10.5 102370 42
2009-12-10 09:27:19 51°15.032 2°54.45 18.4 319 10.5 102380 43
2009-12-10 09:27:24 51°15.045 2°54.439 17 306 10.5 102380 43
2009-12-10 09:27:29 51°15.058 2°54.428 16.9 319 10.5 102390 43
2009-12-10 09:27:34 51°15.071 2°54.417 17.6 304 10.5 102390 43
2009-12-10 09:27:39 51°15.083 2°54.406 18.1 322 10.5 102380 42
2009-12-10 09:27:44 51°15.097 2°54.395 19 303 10.5 102380 42
2009-12-10 09:27:49 51°15.109 2°54.384 17.6 321 10.5 102370 42
2009-12-10 09:27:54 51°15.122 2°54.373 19.6 307 10.5 102370 42
2009-12-10 09:27:59 51°15.135 2°54.362 18.8 318 10.5 102390 43
2009-12-10 09:28:04 51°15.148 2°54.35 16.7 308 10.5 102390 43
2009-12-10 09:28:09 51°15.161 2°54.339 15.8 319 10.5 102370 42
2009-12-10 09:28:14 51°15.174 2°54.328 16 308 10.5 102370 42
2009-12-10 09:28:19 51°15.186 2°54.317 15.2 319 10.5 102380 43
2009-12-10 09:28:24 51°15.199 2°54.305 15.4 306 10.5 102380 43
2009-12-10 09:28:29 51°15.212 2°54.294 17.1 321 10.5 102380 43
2009-12-10 09:28:34 51°15.225 2°54.282 15.7 308 10.5 102380 43
2009-12-10 09:28:39 51°15.239 2°54.271 18.1 320 10.5 102400 43
2009-12-10 09:28:44 51°15.252 2°54.26 17.5 307 10.5 102400 43
2009-12-10 09:28:48 51°15.262 2°54.251 18.3 319 10.5 102400 43
2009-12-10 09:28:54 51°15.277 2°54.236 17.1 308 10.5 102400 43
2009-12-10 09:28:59 51°15.29 2°54.225 18 321 10.5 102400 43
2009-12-10 09:29:04 51°15.303 2°54.213 15 308 10.5 102400 43
2009-12-10 09:29:09 51°15.316 2°54.201 15.8 320 10.5 102380 43
2009-12-10 09:29:14 51°15.329 2°54.19 15.8 307 10.5 102380 43
2009-12-10 09:29:19 51°15.342 2°54.178 14.7 319 10.5 102380 42
2009-12-10 09:29:24 51°15.354 2°54.167 14.8 305 10.5 102380 42
2009-12-10 09:29:29 51°15.367 2°54.156 15.4 320 10.5 102380 42
2009-12-10 09:29:34 51°15.38 2°54.144 15.5 307 10.5 102380 42
2009-12-10 09:29:39 51°15.392 2°54.133 16.1 319 10.4 102390 43
2009-12-10 09:29:44 51°15.405 2°54.122 15.8 304 10.4 102390 43
2009-12-10 09:29:49 51°15.417 2°54.112 15 317 10.4 102390 43
2009-12-10 09:29:54 51°15.43 2°54.101 15.9 303 10.4 102390 43
2009-12-10 09:29:58 51°15.44 2°54.092 15.4 320 10.4 102390 43
2009-12-10 09:30:03 51°15.452 2°54.08 13.9 305 10.4 102390 43
2009-12-10 09:30:08 51°15.465 2°54.069 15.1 319 10.4 102380 42
2009-12-10 09:30:13 51°15.477 2°54.057 15 307 10.4 102380 42
2009-12-10 09:30:18 51°15.49 2°54.045 13.8 321 10.5 102390 42
2009-12-10 09:30:24 51°15.506 2°54.032 15.3 304 10.5 102390 42
2009-12-10 09:30:29 51°15.518 2°54.02 14.2 317 10.5 102380 43
2009-12-10 09:30:34 51°15.531 2°54.008 16.4 307 10.5 102380 43
2009-12-10 09:30:38 51°15.541 2°53.999 17.6 320 10.4 102400 43
2009-12-10 09:30:43 51°15.554 2°53.988 14.2 303 10.4 102400 43
2009-12-10 09:30:48 51°15.567 2°53.976 15.4 318 10.5 102400 43
2009-12-10 09:30:54 51°15.582 2°53.962 17.3 305 10.5 102400 43
2009-12-10 09:30:59 51°15.595 2°53.95 18 317 10.4 102400 44
2009-12-10 09:31:03 51°15.605 2°53.94 17.5 307 10.4 102400 44
2009-12-10 09:31:08 51°15.618 2°53.928 18 318 10.5 102380 43
2009-12-10 09:31:14 51°15.634 2°53.915 17.1 308 10.5 102380 43
2009-12-10 09:31:19 51°15.647 2°53.903 18 318 10.4 102400 43
2009-12-10 09:31:23 51°15.657 2°53.894 15.6 304 10.4 102400 43
2009-12-10 09:31:29 51°15.673 2°53.881 15.7 318 10.4 102380 43
2009-12-10 09:31:34 51°15.686 2°53.87 15.8 308 10.4 102380 43
2009-12-10 09:31:39 51°15.7 2°53.859 16.2 316 10.4 102390 43
2009-12-10 09:31:43 51°15.71 2°53.85 18.1 304 10.4 102390 43
2009-12-10 09:31:49 51°15.725 2°53.838 18.8 318 10.4 102380 43
2009-12-10 09:31:54 51°15.738 2°53.826 16 303 10.4 102380 43
2009-12-10 09:31:59 51°15.75 2°53.816 17.4 320 10.4 102400 43
2009-12-10 09:32:04 51°15.763 2°53.805 18 307 10.4 102400 43
2009-12-10 09:32:08 51°15.773 2°53.796 16.2 319 10.4 102390 43
2009-12-10 09:32:14 51°15.789 2°53.783 15.2 305 10.4 102390 43
2009-12-10 09:32:18 51°15.799 2°53.774 17.1 318 10.4 102380 43
2009-12-10 09:32:23 51°15.812 2°53.763 16.2 284 10.4 102380 43
2009-12-10 09:32:29 51°15.827 2°53.749 17.6 318 10.4 102380 42
2009-12-10 09:32:34 51°15.84 2°53.738 17.3 306 10.4 102380 42
2009-12-10 09:32:38 51°15.85 2°53.729 17.6 316 10.4 102390 42
2009-12-10 09:32:43 51°15.863 2°53.718 17.5 306 10.4 102390 42
2009-12-10 09:32:48 51°15.877 2°53.708 15.1 317 10.4 102380 43
2009-12-10 09:32:54 51°15.892 2°53.694 16.8 306 10.4 102380 43
2009-12-10 09:32:59 51°15.905 2°53.683 16.1 317 10.4 102370 42
2009-12-10 09:33:03 51°15.915 2°53.675 17 309 10.4 102370 42
2009-12-10 09:33:08 51°15.928 2°53.664 15.1 319 10.4 102400 42
2009-12-10 09:33:14 51°15.944 2°53.651 18.7 306 10.4 102400 42
2009-12-10 09:33:19 51°15.956 2°53.64 16.7 318 10.4 102390 42
2009-12-10 09:33:23 51°15.967 2°53.631 17.2 307 10.4 102390 42
2009-12-10 09:33:28 51°15.98 2°53.62 17.8 317 10.5 102400 43
2009-12-10 09:33:33 51°15.993 2°53.609 17.3 305 10.5 102400 43
2009-12-10 09:33:39 51°16.008 2°53.596 17.7 318 10.5 102390 42
2009-12-10 09:33:44 51°16.021 2°53.585 15.9 306 10.5 102390 42
2009-12-10 09:33:49 51°16.034 2°53.575 16.8 317 10.5 102380 43
2009-12-10 09:33:54 51°16.045 2°53.564 16.8 305 10.5 102380 43
2009-12-10 09:33:59 51°16.058 2°53.553 16.7 316 10.5 102380 42
2009-12-10 09:34:04 51°16.071 2°53.542 15.2 303 10.5 102380 42
2009-12-10 09:34:09 51°16.084 2°53.531 15.5 318 10.5 102390 43
2009-12-10 09:34:14 51°16.096 2°53.52 17.7 306 10.5 102390 43
2009-12-10 09:34:18 51°16.106 2°53.512 16.8 316 10.5 102390 43
2009-12-10 09:34:24 51°16.121 2°53.5 15.1 307 10.5 102390 43
2009-12-10 09:34:29 51°16.133 2°53.489 16.2 317 10.5 102380 43
2009-12-10 09:34:34 51°16.146 2°53.478 16.6 305 10.5 102380 43
2009-12-10 09:34:38 51°16.156 2°53.469 16.4 318 10.4 102390 43
2009-12-10 09:34:43 51°16.168 2°53.459 15.5 305 10.4 102390 43
2009-12-10 09:34:49 51°16.183 2°53.446 14.2 319 10.5 102380 43
2009-12-10 09:34:54 51°16.196 2°53.436 14.1 302 10.5 102380 43
2009-12-10 09:34:59 51°16.208 2°53.426 15.3 317 10.5 102380 42
2009-12-10 09:35:04 51°16.221 2°53.415 16.6 308 10.5 102380 42
2009-12-10 09:35:09 51°16.233 2°53.404 14.9 319 10.5 102380 42
2009-12-10 09:35:14 51°16.246 2°53.393 16.1 304 10.5 102380 42
2009-12-10 09:35:19 51°16.259 2°53.382 15.4 318 10.5 102410 44
2009-12-10 09:35:23 51°16.269 2°53.373 15 308 10.5 102410 44
2009-12-10 09:35:29 51°16.284 2°53.359 14.1 318 10.5 102390 43
2009-12-10 09:35:34 51°16.298 2°53.348 15.3 303 10.5 102390 43
2009-12-10 09:35:39 51°16.311 2°53.336 15.6 319 10.5 102390 43
2009-12-10 09:35:43 51°16.321 2°53.328 15.8 306 10.5 102390 43
2009-12-10 09:35:48 51°16.334 2°53.315 15 316 10.5 102400 43
2009-12-10 09:35:53 51°16.348 2°53.303 14.6 304 10.5 102400 43
2009-12-10 09:35:59 51°16.364 2°53.289 16.1 316 10.5 102400 43
2009-12-10 09:36:03 51°16.374 2°53.28 15.4 310 10.5 102400 43
2009-12-10 09:36:09 51°16.39 2°53.266 14.3 318 10.5 102400 43
2009-12-10 09:36:13 51°16.4 2°53.257 16.2 307 10.5 102400 43
2009-12-10 09:36:18 51°16.414 2°53.246 13.9 316 10.5 102390 43
2009-12-10 09:36:23 51°16.427 2°53.234 16.1 304 10.5 102390 43
2009-12-10 09:36:29 51°16.442 2°53.221 16.9 316 10.5 102400 44
2009-12-10 09:36:33 51°16.452 2°53.211 15.7 303 10.5 102400 44
2009-12-10 09:36:38 51°16.466 2°53.2 17.1 315 10.5 102390 44
2009-12-10 09:36:43 51°16.479 2°53.188 16.4 306 10.5 102390 44
2009-12-10 09:36:49 51°16.494 2°53.175 16.7 317 10.5 102410 43
2009-12-10 09:36:54 51°16.508 2°53.164 16.3 306 10.5 102410 43
2009-12-10 09:36:59 51°16.521 2°53.152 16.2 315 10.4 102380 43
2009-12-10 09:37:03 51°16.532 2°53.143 18.8 305 10.4 102380 43
2009-12-10 09:37:09 51°16.547 2°53.13 14.9 21 10.5 102390 43
2009-12-10 09:37:14 51°16.561 2°53.121 14.8 305 10.5 102390 43
2009-12-10 09:37:19 51°16.573 2°53.11 15.2 22 10.4 102390 42
2009-12-10 09:37:23 51°16.583 2°53.101 14.9 308 10.4 102390 42
2009-12-10 09:37:28 51°16.597 2°53.091 12.8 319 10.5 102390 43
2009-12-10 09:37:34 51°16.612 2°53.077 16.6 304 10.5 102390 43
2009-12-10 09:37:38 51°16.622 2°53.069 15.8 315 10.5 102390 43
2009-12-10 09:37:43 51°16.635 2°53.058 14.3 303 10.5 102390 43
2009-12-10 09:37:48 51°16.649 2°53.048 14.7 319 10.5 102390 42
2009-12-10 09:37:54 51°16.664 2°53.035 15.9 307 10.5 102390 42
2009-12-10 09:37:59 51°16.677 2°53.024 14.7 321 10.5 102420 44
2009-12-10 09:38:03 51°16.687 2°53.016 14.1 309 10.5 102420 44
2009-12-10 09:38:09 51°16.702 2°53.003 14.9 320 10.5 102380 42
2009-12-10 09:38:14 51°16.715 2°52.992 18 306 10.5 102380 42
2009-12-10 09:38:19 51°16.727 2°52.982 15.7 317 10.5 102400 43
2009-12-10 09:38:23 51°16.737 2°52.974 13 305 10.5 102400 43
2009-12-10 09:38:28 51°16.75 2°52.963 14.2 320 10.5 102400 43
2009-12-10 09:38:34 51°16.765 2°52.951 15.3 307 10.5 102400 43
2009-12-10 09:38:39 51°16.778 2°52.94 15.3 320 10.5 102420 43
2009-12-10 09:38:43 51°16.788 2°52.932 16.6 305 10.5 102420 43
2009-12-10 09:38:48 51°16.801 2°52.921 16.7 318 10.5 102390 43
2009-12-10 09:38:54 51°16.817 2°52.908 17.7 306 10.5 102390 43
2009-12-10 09:38:58 51°16.827 2°52.899 16.6 319 10.5 102390 43
2009-12-10 09:39:03 51°16.84 2°52.887 15.8 307 10.5 102390 43
2009-12-10 09:39:09 51°16.856 2°52.875 18.2 320 10.4 102390 43
2009-12-10 09:39:14 51°16.869 2°52.865 15.2 304 10.4 102390 43
2009-12-10 09:39:19 51°16.882 2°52.854 16.9 321 10.4 102390 43
2009-12-10 09:39:25 51°16.897 2°52.842 16.4 310 10.4 102390 43
2009-12-10 09:39:30 51°16.91 2°52.831 16.2 318 10.5 102400 42
2009-12-10 09:39:35 51°16.923 2°52.821 16.2 305 10.5 102400 42
2009-12-10 09:39:39 51°16.933 2°52.812 14.8 319 10.5 102380 42
2009-12-10 09:39:44 51°16.945 2°52.801 14.8 306 10.5 102380 42
2009-12-10 09:39:49 51°16.958 2°52.79 14.8 319 10.4 102410 43
2009-12-10 09:39:54 51°16.971 2°52.78 15.4 308 10.4 102410 43
2009-12-10 09:39:59 51°16.984 2°52.77 17.3 318 10.4 102390 43
2009-12-10 09:40:03 51°16.995 2°52.761 16.6 304 10.4 102390 43
2009-12-10 09:40:08 51°17.007 2°52.75 15.9 318 10.4 102390 43
2009-12-10 09:40:14 51°17.023 2°52.737 16.4 306 10.4 102390 43
2009-12-10 09:40:19 51°17.036 2°52.727 17.3 319 10.5 102410 43
2009-12-10 09:40:23 51°17.046 2°52.718 14.9 309 10.5 102410 43
2009-12-10 09:40:28 51°17.058 2°52.707 16 318 10.5 102390 42
2009-12-10 09:40:33 51°17.071 2°52.697 16 305 10.5 102390 42
2009-12-10 09:40:39 51°17.086 2°52.683 14 317 10.5 102400 42
2009-12-10 09:40:43 51°17.097 2°52.675 15.1 307 10.5 102400 42
2009-12-10 09:40:48 51°17.11 2°52.664 14.4 320 10.5 102400 43
2009-12-10 09:40:54 51°17.125 2°52.653 15.4 307 10.5 102400 43
2009-12-10 09:40:59 51°17.138 2°52.641 15.4 319 10.5 102420 43
2009-12-10 09:41:04 51°17.15 2°52.63 16.2 306 10.5 102420 43
2009-12-10 09:41:09 51°17.163 2°52.62 14.3 22 10.5 102400 43
2009-12-10 09:41:13 51°17.174 2°52.611 15.4 308 10.5 102400 43
2009-12-10 09:41:18 51°17.188 2°52.603 15.7 21 10.5 102410 42
2009-12-10 09:41:23 51°17.202 2°52.595 14.5 304 10.5 102410 42
2009-12-10 09:41:29 51°17.219 2°52.589 16.3 24 10.5 102400 43
2009-12-10 09:41:34 51°17.234 2°52.584 14.9 306 10.5 102400 43
2009-12-10 09:41:38 51°17.245 2°52.581 14.1 27 10.5 102400 43
2009-12-10 09:41:43 51°17.261 2°52.579 14.5 304 10.5 102400 43
2009-12-10 09:41:49 51°17.279 2°52.576 13.5 23 10.5 102390 42
2009-12-10 09:41:54 51°17.294 2°52.574 13.2 308 10.5 102390 42
2009-12-10 09:41:59 51°17.31 2°52.573 13.9 24 10.5 102390 44
2009-12-10 09:42:03 51°17.322 2°52.572 13.8 310 10.5 102390 44
2009-12-10 09:42:08 51°17.337 2°52.571 14.1 21 10.5 102400 43
2009-12-10 09:42:14 51°17.356 2°52.57 15.2 306 10.5 102400 43
2009-12-10 09:42:19 51°17.372 2°52.57 14.3 22 10.5 102390 43
2009-12-10 09:42:23 51°17.384 2°52.571 13.7 310 10.5 102390 43
2009-12-10 09:42:28 51°17.4 2°52.57 12.9 25 10.5 102400 43
2009-12-10 09:42:34 51°17.418 2°52.571 14.4 306 10.5 102400 43
2009-12-10 09:42:39 51°17.433 2°52.571 13.3 22 10.5 102390 42
2009-12-10 09:42:43 51°17.446 2°52.572 13.9 306 10.5 102390 42
2009-12-10 09:42:48 51°17.461 2°52.573 15.8 24 10.5 102390 43
2009-12-10 09:42:53 51°17.476 2°52.574 15.7 305 10.5 102390 43
2009-12-10 09:42:59 51°17.494 2°52.574 14 21 10.5 102400 44
2009-12-10 09:43:03 51°17.507 2°52.575 13.9 309 10.5 102400 44
2009-12-10 09:43:09 51°17.525 2°52.575 15.4 23 10.5 102390 42
2009-12-10 09:43:13 51°17.537 2°52.576 16.2 308 10.5 102390 42
2009-12-10 09:43:18 51°17.553 2°52.576 15 20 10.5 102380 42
2009-12-10 09:43:23 51°17.568 2°52.577 14.5 309 10.5 102380 42
2009-12-10 09:43:29 51°17.587 2°52.578 16.5 25 10.4 102380 42
2009-12-10 09:43:34 51°17.602 2°52.577 16.3 306 10.4 102380 42
2009-12-10 09:43:38 51°17.615 2°52.578 16.6 23 10.5 102380 43
2009-12-10 09:43:43 51°17.631 2°52.578 16.3 305 10.5 102380 43
2009-12-10 09:43:49 51°17.649 2°52.578 15.2 21 10.4 102370 42
2009-12-10 09:43:54 51°17.665 2°52.578 15.8 308 10.4 102370 42
2009-12-10 09:43:59 51°17.68 2°52.578 16.9 24 10.4 102380 42
2009-12-10 09:44:03 51°17.692 2°52.581 12.3 303 10.4 102380 42
2009-12-10 09:44:10 51°17.712 2°52.583 13.5 25 10.4 102370 43
2009-12-10 09:44:15 51°17.726 2°52.584 16.6 306 10.4 102370 43
2009-12-10 09:44:20 51°17.741 2°52.585 16.3 23 10.4 102380 43
2009-12-10 09:44:25 51°17.755 2°52.586 17.1 305 10.4 102380 43
2009-12-10 09:44:30 51°17.77 2°52.587 15.8 22 10.4 102370 43
2009-12-10 09:44:35 51°17.785 2°52.589 15 308 10.4 102370 43
2009-12-10 09:44:40 51°17.799 2°52.589 16.8 20 10.4 102380 42
2009-12-10 09:44:45 51°17.814 2°52.591 15.9 281 10.4 102380 42
2009-12-10 09:44:49 51°17.826 2°52.591 16.2 20 10.4 102380 42
2009-12-10 09:44:54 51°17.841 2°52.592 17 308 10.4 102380 42
2009-12-10 09:44:59 51°17.856 2°52.592 14.8 20 10.4 102370 42
2009-12-10 09:45:04 51°17.871 2°52.593 14.8 303 10.4 102370 42
2009-12-10 09:45:08 51°17.883 2°52.594 15.6 23 10.4 102390 42
2009-12-10 09:45:14 51°17.902 2°52.595 15.4 303 10.4 102390 42
2009-12-10 09:45:19 51°17.916 2°52.598 16.9 27 10.5 102380 42
2009-12-10 09:45:23 51°17.928 2°52.598 16.2 308 10.5 102380 42
2009-12-10 09:45:29 51°17.947 2°52.599 12.5 20 10.5 102390 43
2009-12-10 09:45:34 51°17.962 2°52.6 16 303 10.5 102390 43
2009-12-10 09:45:38 51°17.974 2°52.602 15 24 10.5 102380 43
2009-12-10 09:45:43 51°17.989 2°52.603 14.5 284 10.5 102380 43
2009-12-10 09:45:49 51°18.007 2°52.604 12.9 22 10.5 102380 41
2009-12-10 09:45:54 51°18.022 2°52.607 16 305 10.5 102380 41
2009-12-10 09:45:58 51°18.034 2°52.609 14.4 26 10.5 102400 44
2009-12-10 09:46:03 51°18.05 2°52.614 15 307 10.5 102400 44
2009-12-10 09:46:09 51°18.067 2°52.62 15.6 25 10.5 102390 43
2009-12-10 09:46:14 51°18.082 2°52.626 14.2 307 10.5 102390 43
2009-12-10 09:46:19 51°18.097 2°52.632 15.6 23 10.5 102390 43
2009-12-10 09:46:23 51°18.108 2°52.64 16.4 305 10.5 102390 43
2009-12-10 09:46:28 51°18.123 2°52.647 14.4 25 10.5 102390 43
2009-12-10 09:46:34 51°18.139 2°52.661 13.9 307 10.5 102390 43
2009-12-10 09:46:39 51°18.154 2°52.67 12.6 20 10.5 102410 42
2009-12-10 09:46:43 51°18.165 2°52.68 15.3 307 10.5 102410 42
2009-12-10 09:46:48 51°18.178 2°52.691 13.8 22 10.5 102390 43
2009-12-10 09:46:54 51°18.194 2°52.708 13.2 307 10.5 102390 43
2009-12-10 09:46:59 51°18.208 2°52.719 12.7 248 10.5 102400 43
2009-12-10 09:47:03 51°18.218 2°52.733 15.3 308 10.5 102400 43
2009-12-10 09:47:08 51°18.232 2°52.744 14 246 10.5 102400 42
2009-12-10 09:47:13 51°18.243 2°52.761 15 308 10.5 102400 42
2009-12-10 09:47:19 51°18.258 2°52.779 13.8 255 10.5 102390 42
2009-12-10 09:47:23 51°18.267 2°52.793 11.7 309 10.5 102390 42
2009-12-10 09:47:29 51°18.28 2°52.815 14.8 258 10.5 102390 42
2009-12-10 09:47:33 51°18.288 2°52.83 12.5 302 10.5 102390 42
2009-12-10 09:47:39 51°18.3 2°52.854 12.4 259 10.5 102390 43
2009-12-10 09:47:43 51°18.307 2°52.87 8.1 277 10.5 102390 43
2009-12-10 09:47:49 51°18.317 2°52.896 10.4 262 10.5 102420 42
2009-12-10 09:47:54 51°18.326 2°52.916 8.4 308 10.5 102420 42
2009-12-10 09:47:58 51°18.332 2°52.934 9.2 255 10.5 102430 43
2009-12-10 09:48:03 51°18.338 2°52.957 7.4 309 10.5 102430 43
2009-12-10 09:48:09 51°18.346 2°52.983 4.7 261 10.5 102420 44
2009-12-10 09:48:14 51°18.351 2°53.007 5.6 310 10.5 102420 44
2009-12-10 09:48:19 51°18.357 2°53.029 6 265 10.5 102430 43
2009-12-10 09:48:23 51°18.358 2°53.049 6.8 307 10.5 102430 43
2009-12-10 09:48:29 51°18.366 2°53.075 5.5 267 10.5 102430 44
2009-12-10 09:48:34 51°18.37 2°53.1 7.2 301 10.5 102430 44
2009-12-10 09:48:39 51°18.376 2°53.122 5.7 264 10.5 102430 43
2009-12-10 09:48:43 51°18.378 2°53.142 7.8 301 10.5 102430 43
2009-12-10 09:48:49 51°18.386 2°53.169 5.7 270 10.5 102430 44
2009-12-10 09:48:54 51°18.39 2°53.193 4.8 313 10.5 102430 44
2009-12-10 09:48:59 51°18.394 2°53.217 7.9 261 10.4 102440 43
2009-12-10 09:49:03 51°18.4 2°53.234 5 309 10.4 102440 43
2009-12-10 09:49:08 51°18.403 2°53.258 7 262 10.4 102430 41
2009-12-10 09:49:13 51°18.41 2°53.28 5 302 10.4 102430 41
2009-12-10 09:49:19 51°18.416 2°53.308 8.1 264 10.4 102450 42
2009-12-10 09:49:23 51°18.422 2°53.326 6.5 307 10.4 102450 42
2009-12-10 09:49:29 51°18.429 2°53.355 7.4 263 10.5 102450 42
2009-12-10 09:49:34 51°18.436 2°53.376 5.9 307 10.5 102450 42
2009-12-10 09:49:39 51°18.441 2°53.4 8.4 263 10.4 102440 43
2009-12-10 09:49:43 51°18.449 2°53.417 6.1 307 10.4 102440 43
2009-12-10 09:49:49 51°18.456 2°53.445 7.7 261 10.5 102440 44
2009-12-10 09:49:54 51°18.462 2°53.467 8.4 304 10.5 102440 44
2009-12-10 09:49:59 51°18.469 2°53.49 7.7 261 10.5 102440 42
2009-12-10 09:50:04 51°18.478 2°53.511 7.5 305 10.5 102440 42
2009-12-10 09:50:08 51°18.481 2°53.53 11.7 258 10.5 102450 44
2009-12-10 09:50:14 51°18.492 2°53.555 6.9 309 10.5 102450 44
2009-12-10 09:50:18 51°18.497 2°53.573 7.4 261 10.5 102440 44
2009-12-10 09:50:24 51°18.506 2°53.6 9.2 282 10.5 102440 44
2009-12-10 09:50:28 51°18.513 2°53.616 7.9 261 10.5 102450 44
2009-12-10 09:50:34 51°18.521 2°53.644 9.6 307 10.5 102450 44
2009-12-10 09:50:39 51°18.53 2°53.666 6.8 265 10.5 102440 42
2009-12-10 09:50:43 51°18.534 2°53.686 9.3 282 10.5 102440 42
2009-12-10 09:50:48 51°18.543 2°53.706 4.6 262 10.5 102440 44
2009-12-10 09:50:54 51°18.551 2°53.733 10.2 303 10.5 102440 44
2009-12-10 09:50:59 51°18.559 2°53.755 8.8 261 10.5 102430 43
2009-12-10 09:51:03 51°18.566 2°53.771 7.7 286 10.5 102430 43
2009-12-10 09:51:08 51°18.571 2°53.795 10.6 260 10.5 102440 41
2009-12-10 09:51:14 51°18.583 2°53.818 11 307 10.5 102440 41
2009-12-10 09:51:19 51°18.589 2°53.842 10.4 262 10.5 102450 43
2009-12-10 09:51:24 51°18.599 2°53.86 5.9 285 10.5 102450 43
2009-12-10 09:51:28 51°18.603 2°53.879 7.6 263 10.5 102450 43
2009-12-10 09:51:33 51°18.611 2°53.901 9.8 284 10.5 102450 43
2009-12-10 09:51:39 51°18.621 2°53.925 7.9 264 10.5 102450 44
2009-12-10 09:51:44 51°18.628 2°53.947 7.2 -999 10.5 102450 44
2009-12-10 09:51:48 51°18.635 2°53.964 9.5 260 10.4 102460 42
2009-12-10 09:51:53 51°18.643 2°53.984 7.6 278 10.4 102460 42
2009-12-10 09:51:59 51°18.652 2°54.01 10 259 10.4 102450 42
2009-12-10 09:52:03 51°18.657 2°54.028 9.6 305 10.4 102450 42
2009-12-10 09:52:08 51°18.667 2°54.048 7.1 259 10.4 102450 42
2009-12-10 09:52:13 51°18.672 2°54.071 10.9 282 10.4 102450 42
2009-12-10 09:52:19 51°18.684 2°54.094 5.4 262 10.5 102450 44
2009-12-10 09:52:23 51°18.689 2°54.113 8.4 306 10.5 102450 44
2009-12-10 09:52:28 51°18.698 2°54.134 6.1 263 10.5 102440 43
2009-12-10 09:52:34 51°18.708 2°54.159 7.4 280 10.5 102440 43
2009-12-10 09:52:39 51°18.715 2°54.181 8.1 258 10.5 102440 42
2009-12-10 09:52:43 51°18.721 2°54.198 9.3 -999 10.5 102440 42
2009-12-10 09:52:49 51°18.732 2°54.223 4 264 10.4 102450 42
2009-12-10 09:52:54 51°18.739 2°54.244 3.9 286 10.4 102450 42
2009-12-10 09:52:59 51°18.747 2°54.267 7.3 260 10.4 102450 43
2009-12-10 09:53:03 51°18.755 2°54.282 7.9 283 10.4 102450 43
2009-12-10 09:53:09 51°18.764 2°54.308 7.7 259 10.5 102450 44
2009-12-10 09:53:14 51°18.773 2°54.327 10.2 282 10.5 102450 44
2009-12-10 09:53:19 51°18.781 2°54.349 7 255 10.5 102460 42
2009-12-10 09:53:23 51°18.787 2°54.366 10 277 10.5 102460 42
2009-12-10 09:53:28 51°18.796 2°54.386 10.2 260 10.5 102450 42
2009-12-10 09:53:34 51°18.807 2°54.41 8.8 280 10.5 102450 42
2009-12-10 09:53:39 51°18.814 2°54.432 9.5 256 10.5 102450 42
2009-12-10 09:53:43 51°18.821 2°54.449 10.5 283 10.5 102450 42
2009-12-10 09:53:48 51°18.831 2°54.468 8.1 259 10.5 102450 43
2009-12-10 09:53:53 51°18.837 2°54.491 9.9 283 10.5 102450 43
2009-12-10 09:53:59 51°18.848 2°54.513 11.6 259 10.5 102450 43
2009-12-10 09:54:03 51°18.853 2°54.531 8.8 280 10.5 102450 43
2009-12-10 09:54:08 51°18.863 2°54.55 8.3 260 10.5 102440 42
2009-12-10 09:54:13 51°18.869 2°54.573 7.5 281 10.5 102440 42
2009-12-10 09:54:19 51°18.879 2°54.598 5.6 265 10.5 102440 43
2009-12-10 09:54:23 51°18.885 2°54.615 7.4 307 10.5 102440 43
2009-12-10 09:54:28 51°18.893 2°54.636 6.2 257 10.5 102450 42
2009-12-10 09:54:33 51°18.899 2°54.659 6.2 281 10.5 102450 42
2009-12-10 09:54:39 51°18.907 2°54.686 5.7 265 10.5 102450 45
2009-12-10 09:54:43 51°18.914 2°54.702 7.1 279 10.5 102450 45
2009-12-10 09:54:49 51°18.921 2°54.73 10.5 256 10.5 102450 44
2009-12-10 09:54:54 51°18.93 2°54.75 7.8 279 10.5 102450 44
2009-12-10 09:54:58 51°18.933 2°54.77 9.3 259 10.5 102450 43
2009-12-10 09:55:03 51°18.941 2°54.791 10.1 279 10.5 102450 43
2009-12-10 09:55:08 51°18.947 2°54.815 10.3 263 10.5 102460 42
2009-12-10 09:55:14 51°18.957 2°54.84 7.6 303 10.5 102460 42
2009-12-10 09:55:19 51°18.961 2°54.865 7.5 261 10.5 102460 42
2009-12-10 09:55:23 51°18.966 2°54.882 11.6 282 10.5 102460 42
2009-12-10 09:55:28 51°18.973 2°54.905 7.5 265 10.5 102450 44
2009-12-10 09:55:34 51°18.982 2°54.931 6.7 302 10.5 102450 44
2009-12-10 09:55:39 51°18.986 2°54.956 6.7 263 10.5 102450 43
2009-12-10 09:55:43 51°18.993 2°54.972 8.3 283 10.5 102450 43
2009-12-10 09:55:48 51°18.998 2°54.997 7.5 262 10.5 102440 44
2009-12-10 09:55:54 51°19.007 2°55.022 4.8 284 10.5 102440 44
2009-12-10 09:55:59 51°19.011 2°55.046 9.1 263 10.4 102460 42
2009-12-10 09:56:04 51°19.019 2°55.068 7.2 283 10.4 102460 42
2009-12-10 09:56:08 51°19.023 2°55.086 7.6 264 10.4 102460 42
2009-12-10 09:56:13 51°19.029 2°55.109 8.7 279 10.4 102460 42
2009-12-10 09:56:19 51°19.038 2°55.135 5.4 263 10.4 102460 42
2009-12-10 09:56:24 51°19.044 2°55.157 11.6 279 10.4 102460 42
2009-12-10 09:56:28 51°19.05 2°55.174 5.6 263 10.4 102450 41
2009-12-10 09:56:34 51°19.057 2°55.201 8 284 10.4 102450 41
2009-12-10 09:56:38 51°19.063 2°55.218 8.9 260 10.4 102440 43
2009-12-10 09:56:43 51°19.072 2°55.238 7.3 284 10.4 102440 43
2009-12-10 09:56:49 51°19.08 2°55.265 6.8 264 10.4 102450 42
2009-12-10 09:56:54 51°19.088 2°55.287 4.5 285 10.4 102450 42
2009-12-10 09:56:58 51°19.092 2°55.305 9.9 260 10.4 102450 42
2009-12-10 09:57:03 51°19.101 2°55.326 6.7 283 10.4 102450 42
2009-12-10 09:57:09 51°19.108 2°55.353 10.6 262 10.4 102450 44
2009-12-10 09:57:14 51°19.115 2°55.375 7 285 10.4 102450 44
2009-12-10 09:57:18 51°19.121 2°55.392 9.9 259 10.4 102460 42
2009-12-10 09:57:23 51°19.127 2°55.415 7.6 285 10.4 102460 42
2009-12-10 09:57:29 51°19.137 2°55.44 7 264 10.4 102460 42
2009-12-10 09:57:34 51°19.142 2°55.465 9.9 281 10.4 102460 42
2009-12-10 09:57:39 51°19.151 2°55.485 8.9 263 10.4 102460 43
2009-12-10 09:57:43 51°19.155 2°55.503 7.4 283 10.4 102460 43
2009-12-10 09:57:48 51°19.163 2°55.524 8.1 260 10.4 102440 42
2009-12-10 09:57:54 51°19.169 2°55.552 8.8 307 10.4 102440 42
2009-12-10 09:57:59 51°19.176 2°55.574 7.7 262 10.4 102450 42
2009-12-10 09:58:03 51°19.179 2°55.593 8.1 279 10.4 102450 42
2009-12-10 09:58:08 51°19.185 2°55.616 5.6 265 10.4 102450 42
2009-12-10 09:58:14 51°19.193 2°55.643 6 306 10.4 102450 42
2009-12-10 09:58:19 51°19.197 2°55.667 7.4 262 10.4 102460 42
2009-12-10 09:58:23 51°19.203 2°55.685 7 301 10.4 102460 42
2009-12-10 09:58:29 51°19.208 2°55.713 7 261 10.4 102450 42
2009-12-10 09:58:34 51°19.215 2°55.735 7.4 284 10.4 102450 42
2009-12-10 09:58:39 51°19.219 2°55.759 6.2 263 10.4 102460 45
2009-12-10 09:58:43 51°19.223 2°55.777 6.3 309 10.4 102460 45
2009-12-10 09:58:49 51°19.229 2°55.805 8.6 262 10.4 102450 42
2009-12-10 09:58:54 51°19.234 2°55.828 5.1 280 10.4 102450 42
2009-12-10 09:58:58 51°19.238 2°55.847 7.2 258 10.4 102460 42
2009-12-10 09:59:03 51°19.244 2°55.869 6.5 309 10.4 102460 42
2009-12-10 09:59:09 51°19.248 2°55.897 8.3 261 10.4 102460 43
2009-12-10 09:59:14 51°19.255 2°55.919 8 284 10.4 102460 43
2009-12-10 09:59:18 51°19.257 2°55.939 7.9 263 10.4 102450 43
2009-12-10 09:59:23 51°19.265 2°55.96 6.2 282 10.4 102450 43
2009-12-10 09:59:29 51°19.268 2°55.989 8.5 263 10.4 102470 44
2009-12-10 09:59:34 51°19.275 2°56.01 10.2 281 10.4 102470 44
2009-12-10 09:59:39 51°19.279 2°56.035 9.1 263 10.4 102470 42
2009-12-10 09:59:43 51°19.283 2°56.053 8.5 280 10.4 102470 42
2009-12-10 09:59:49 51°19.29 2°56.08 6.4 266 10.4 102470 43
2009-12-10 09:59:54 51°19.296 2°56.103 7.7 306 10.4 102470 43
2009-12-10 09:59:59 51°19.3 2°56.127 7.2 267 10.4 102460 42
2009-12-10 10:00:03 51°19.305 2°56.144 6.5 278 10.4 102460 42
2009-12-10 10:00:08 51°19.309 2°56.168 6.7 263 10.3 102450 44
2009-12-10 10:00:14 51°19.317 2°56.194 6.8 283 10.3 102450 44
2009-12-10 10:00:19 51°19.32 2°56.219 7.1 260 10.3 102450 44
2009-12-10 10:00:23 51°19.326 2°56.236 6.7 283 10.3 102450 44
2009-12-10 10:00:28 51°19.329 2°56.26 8.7 263 10.3 102460 43
2009-12-10 10:00:34 51°19.338 2°56.286 7.5 307 10.3 102460 43
2009-12-10 10:00:39 51°19.341 2°56.31 9.5 262 10.3 102470 44
2009-12-10 10:00:43 51°19.346 2°56.327 9.4 284 10.3 102470 44
2009-12-10 10:00:48 51°19.35 2°56.352 7.7 264 10.4 102470 44
2009-12-10 10:00:54 51°19.357 2°56.378 6.7 278 10.4 102470 44
2009-12-10 10:00:58 51°19.36 2°56.397 10.3 256 10.4 102470 44
2009-12-10 10:01:03 51°19.365 2°56.421 10 309 10.4 102470 44
2009-12-10 10:01:09 51°19.371 2°56.448 6.2 263 10.4 102460 44
2009-12-10 10:01:14 51°19.375 2°56.471 4.4 285 10.4 102460 44
2009-12-10 10:01:19 51°19.38 2°56.495 8.8 264 10.4 102470 42
2009-12-10 10:01:24 51°19.386 2°56.517 7.3 280 10.4 102470 42
2009-12-10 10:01:28 51°19.387 2°56.537 8.1 263 10.4 102450 41
2009-12-10 10:01:34 51°19.395 2°56.562 8.1 282 10.4 102450 41
2009-12-10 10:01:38 51°19.398 2°56.582 6.6 263 10.4 102450 42
2009-12-10 10:01:43 51°19.404 2°56.604 5.9 281 10.4 102450 42
2009-12-10 10:01:49 51°19.408 2°56.634 9.8 262 10.4 102470 41
2009-12-10 10:01:54 51°19.414 2°56.655 8.3 278 10.4 102470 41
2009-12-10 10:01:58 51°19.418 2°56.674 10.3 260 10.4 102470 43
2009-12-10 10:02:03 51°19.422 2°56.697 11.7 282 10.4 102470 43
2009-12-10 10:02:09 51°19.429 2°56.725 8.6 269 10.4 102480 42
2009-12-10 10:02:14 51°19.433 2°56.748 7.7 303 10.4 102480 42
2009-12-10 10:02:19 51°19.439 2°56.771 7.7 266 10.4 102470 42
2009-12-10 10:02:23 51°19.443 2°56.79 6.8 282 10.4 102470 42
2009-12-10 10:02:29 51°19.448 2°56.818 9.5 263 10.3 102460 43
2009-12-10 10:02:34 51°19.454 2°56.839 9.1 306 10.3 102460 43
2009-12-10 10:02:39 51°19.457 2°56.865 9.1 266 10.3 102470 43
2009-12-10 10:02:44 51°19.465 2°56.885 6.1 280 10.3 102470 43
2009-12-10 10:02:49 51°19.467 2°56.91 7.6 264 10.3 102470 43
2009-12-10 10:02:54 51°19.475 2°56.931 7.8 280 10.3 102470 43
2009-12-10 10:02:59 51°19.48 2°56.954 8.1 262 10.4 102480 42
2009-12-10 10:03:03 51°19.484 2°56.972 7.5 307 10.4 102480 42
2009-12-10 10:03:08 51°19.49 2°56.994 6.3 262 10.4 102480 42
2009-12-10 10:03:13 51°19.495 2°57.016 7.3 283 10.4 102480 42
2009-12-10 10:03:19 51°19.501 2°57.045 7.5 259 10.4 102470 44
2009-12-10 10:03:23 51°19.506 2°57.062 6.1 307 10.4 102470 44
2009-12-10 10:03:28 51°19.512 2°57.084 6 263 10.3 102460 41
2009-12-10 10:03:34 51°19.518 2°57.112 13.9 283 10.3 102460 41
2009-12-10 10:03:38 51°19.524 2°57.129 5.9 265 10.4 102470 42
2009-12-10 10:03:44 51°19.528 2°57.157 11.1 281 10.4 102470 42
2009-12-10 10:03:48 51°19.534 2°57.175 7 266 10.3 102470 42
2009-12-10 10:03:54 51°19.539 2°57.203 10.2 281 10.3 102470 42
2009-12-10 10:03:58 51°19.542 2°57.222 8.4 263 10.4 102460 43
2009-12-10 10:04:03 51°19.548 2°57.243 8.9 284 10.4 102460 43
2009-12-10 10:04:09 51°19.553 2°57.272 9 262 10.4 102470 44
2009-12-10 10:04:14 51°19.56 2°57.294 8.5 283 10.4 102470 44
2009-12-10 10:04:19 51°19.564 2°57.317 5.3 265 10.3 102480 43
2009-12-10 10:04:23 51°19.567 2°57.336 8.8 279 10.3 102480 43
2009-12-10 10:04:28 51°19.572 2°57.359 10.9 270 10.3 102480 42
2009-12-10 10:04:34 51°19.577 2°57.387 9 289 10.3 102480 42
2009-12-10 10:04:39 51°19.581 2°57.411 6 265 10.3 102470 43
2009-12-10 10:04:43 51°19.586 2°57.429 5.1 280 10.3 102470 43
2009-12-10 10:04:48 51°19.589 2°57.453 4.8 265 10.3 102460 42
2009-12-10 10:04:53 51°19.593 2°57.476 6.3 283 10.3 102460 42
2009-12-10 10:04:59 51°19.596 2°57.506 7.4 266 10.3 102490 42
2009-12-10 10:05:03 51°19.601 2°57.524 6.7 279 10.3 102490 42
2009-12-10 10:05:08 51°19.605 2°57.547 5.6 264 10.3 102480 42
2009-12-10 10:05:13 51°19.608 2°57.571 6.7 283 10.3 102480 42
2009-12-10 10:05:19 51°19.614 2°57.599 8.6 270 10.3 102470 41
2009-12-10 10:05:23 51°19.616 2°57.618 6.1 307 10.3 102470 41
2009-12-10 10:05:28 51°19.619 2°57.642 5.6 267 10.3 102470 43
2009-12-10 10:05:33 51°19.623 2°57.665 5.5 285 10.3 102470 43
2009-12-10 10:05:39 51°19.627 2°57.693 6.2 270 10.3 102460 47
2009-12-10 10:05:43 51°19.63 2°57.712 6.9 280 10.3 102460 47
2009-12-10 10:05:49 51°19.634 2°57.741 4.7 20 10.3 102480 42
2009-12-10 10:05:54 51°19.639 2°57.765 6.8 87 10.3 102480 42
2009-12-10 10:05:58 51°19.64 2°57.784 4.8 263 10.3 102470 42
2009-12-10 10:06:03 51°19.645 2°57.807 5.1 283 10.3 102470 42
2009-12-10 10:06:09 51°19.649 2°57.835 5.9 265 10.4 102470 42
2009-12-10 10:06:14 51°19.652 2°57.859 5.3 284 10.4 102470 42
2009-12-10 10:06:19 51°19.656 2°57.883 4.6 265 10.4 102480 44
2009-12-10 10:06:23 51°19.66 2°57.9 4.4 286 10.4 102480 44
2009-12-10 10:06:29 51°19.662 2°57.93 6.8 262 10.3 102470 44
2009-12-10 10:06:34 51°19.668 2°57.952 6.3 278 10.3 102470 44
2009-12-10 10:06:38 51°19.671 2°57.971 6.9 262 10.3 102470 41
2009-12-10 10:06:43 51°19.674 2°57.995 6.7 282 10.3 102470 41
2009-12-10 10:06:49 51°19.679 2°58.022 5.2 264 10.4 102480 42
2009-12-10 10:06:54 51°19.683 2°58.045 7.3 303 10.4 102480 42
2009-12-10 10:06:59 51°19.687 2°58.068 5 267 10.4 102470 44
2009-12-10 10:07:03 51°19.689 2°58.088 8.2 284 10.4 102470 44
2009-12-10 10:07:08 51°19.695 2°58.11 7 265 10.3 102460 41
2009-12-10 10:07:14 51°19.699 2°58.139 9 281 10.3 102460 41
2009-12-10 10:07:19 51°19.703 2°58.162 7.7 267 10.3 102460 42
2009-12-10 10:07:23 51°19.706 2°58.181 4.4 303 10.3 102460 42
2009-12-10 10:07:28 51°19.709 2°58.205 4.9 265 10.4 102460 42
2009-12-10 10:07:34 51°19.713 2°58.233 6.2 284 10.4 102460 42
2009-12-10 10:07:39 51°19.716 2°58.257 5.9 270 10.3 102470 44
2009-12-10 10:07:43 51°19.718 2°58.276 4.7 286 10.3 102470 44
2009-12-10 10:07:49 51°19.723 2°58.305 6.7 267 10.3 102480 41
2009-12-10 10:07:54 51°19.725 2°58.328 5.8 280 10.3 102480 41
2009-12-10 10:07:58 51°19.728 2°58.347 5 266 10.3 102470 42
2009-12-10 10:08:03 51°19.732 2°58.37 6.1 308 10.3 102470 42
2009-12-10 10:08:09 51°19.733 2°58.399 6.2 264 10.3 102470 42
2009-12-10 10:08:14 51°19.739 2°58.421 6.2 285 10.3 102470 42
2009-12-10 10:08:18 51°19.741 2°58.44 8.7 41 10.3 102470 44
2009-12-10 10:08:23 51°19.743 2°58.466 7.8 273 10.3 102470 44
2009-12-10 10:08:29 51°19.749 2°58.493 8 25 10.3 102480 42
2009-12-10 10:08:34 51°19.748 2°58.517 7.6 289 10.3 102480 42
2009-12-10 10:08:38 51°19.752 2°58.535 11.8 29 10.3 102470 43
2009-12-10 10:08:43 51°19.755 2°58.559 9.6 278 10.3 102470 43
2009-12-10 10:08:49 51°19.757 2°58.588 8.3 26 10.3 102470 41
2009-12-10 10:08:54 51°19.76 2°58.612 7.8 74 10.3 102470 41
2009-12-10 10:08:59 51°19.761 2°58.636 8.8 22 10.3 102470 45
2009-12-10 10:09:03 51°19.763 2°58.656 7.9 78 10.3 102470 45
2009-12-10 10:09:08 51°19.762 2°58.68 9.7 22 10.3 102480 44
2009-12-10 10:09:14 51°19.765 2°58.708 6.9 75 10.3 102480 44
2009-12-10 10:09:19 51°19.763 2°58.733 9.7 23 10.3 102480 41
2009-12-10 10:09:23 51°19.765 2°58.753 7.3 78 10.3 102480 41
2009-12-10 10:09:28 51°19.765 2°58.777 7.9 22 10.3 102480 40
2009-12-10 10:09:33 51°19.765 2°58.801 7.1 77 10.3 102480 40
2009-12-10 10:09:39 51°19.764 2°58.83 7 19 10.3 102480 41
2009-12-10 10:09:43 51°19.765 2°58.85 8.1 80 10.3 102480 41
2009-12-10 10:09:48 51°19.763 2°58.874 8.2 21 10.3 102470 41
2009-12-10 10:09:53 51°19.763 2°58.898 8 75 10.3 102470 41
2009-12-10 10:09:59 51°19.763 2°58.926 7 27 10.3 102470 41
2009-12-10 10:10:03 51°19.761 2°58.946 7.4 308 10.3 102470 41
2009-12-10 10:10:08 51°19.762 2°58.97 8.1 23 10.3 102480 43
2009-12-10 10:10:14 51°19.761 2°58.999 6.6 75 10.3 102480 43
2009-12-10 10:10:18 51°19.76 2°59.018 8.3 17 10.3 102470 44
2009-12-10 10:10:24 51°19.762 2°59.046 8.4 80 10.3 102470 44
2009-12-10 10:10:28 51°19.761 2°59.065 5.8 13 10.3 102470 41
2009-12-10 10:10:34 51°19.762 2°59.094 7.3 80 10.3 102470 41
2009-12-10 10:10:38 51°19.761 2°59.114 5.3 270 10.3 102470 42
2009-12-10 10:10:43 51°19.763 2°59.138 6 284 10.3 102470 42
2009-12-10 10:10:49 51°19.761 2°59.167 4.8 25 10.3 102470 41
2009-12-10 10:10:54 51°19.763 2°59.192 5.1 284 10.3 102470 41
2009-12-10 10:10:59 51°19.762 2°59.216 7.1 24 10.3 102480 41
2009-12-10 10:11:03 51°19.763 2°59.235 7.7 277 10.3 102480 41
2009-12-10 10:11:09 51°19.766 2°59.264 6.5 26 10.3 102480 42
2009-12-10 10:11:14 51°19.766 2°59.288 9.1 282 10.3 102480 42
2009-12-10 10:11:19 51°19.768 2°59.312 8.1 267 10.3 102480 44
2009-12-10 10:11:23 51°19.77 2°59.331 6.9 280 10.3 102480 44
2009-12-10 10:11:28 51°19.773 2°59.355 8.8 267 10.3 102470 43
2009-12-10 10:11:34 51°19.775 2°59.384 6.5 284 10.3 102470 43
2009-12-10 10:11:39 51°19.781 2°59.407 8.1 265 10.3 102470 43
2009-12-10 10:11:43 51°19.783 2°59.425 6.3 286 10.3 102470 43
2009-12-10 10:11:48 51°19.786 2°59.45 8.4 265 10.3 102480 41
2009-12-10 10:11:53 51°19.792 2°59.472 8.9 283 10.3 102480 41
2009-12-10 10:11:59 51°19.794 2°59.501 9.8 263 10.3 102470 41
2009-12-10 10:12:03 51°19.8 2°59.519 6.3 310 10.3 102470 41
2009-12-10 10:12:08 51°19.804 2°59.542 5.8 265 10.3 102480 43
2009-12-10 10:12:13 51°19.81 2°59.565 4.6 279 10.3 102480 43
2009-12-10 10:12:18 51°19.814 2°59.589 6.3 266 10.3 102480 42
2009-12-10 10:12:24 51°19.82 2°59.615 3.4 284 10.3 102480 42
2009-12-10 10:12:28 51°19.823 2°59.635 7.8 262 10.3 102470 43
2009-12-10 10:12:34 51°19.832 2°59.661 5.9 278 10.3 102470 43
2009-12-10 10:12:39 51°19.836 2°59.685 8.1 262 10.3 102480 44
2009-12-10 10:12:43 51°19.84 2°59.703 10.1 284 10.3 102480 44
2009-12-10 10:12:48 51°19.847 2°59.726 9 260 10.3 102480 41
2009-12-10 10:12:54 51°19.851 2°59.755 9.9 281 10.3 102480 41
2009-12-10 10:12:58 51°19.858 2°59.772 7.8 268 10.3 102480 42
2009-12-10 10:13:03 51°19.863 2°59.795 5.8 279 10.3 102480 42
2009-12-10 10:13:09 51°19.869 2°59.822 8.7 261 10.3 102470 42
2009-12-10 10:13:14 51°19.876 2°59.844 5.9 305 10.3 102470 42
2009-12-10 10:13:18 51°19.879 2°59.864 7.7 262 10.3 102470 42
2009-12-10 10:13:23 51°19.886 2°59.886 8.1 284 10.3 102470 42
2009-12-10 10:13:28 51°19.892 2°59.908 5.3 266 10.3 102480 42
2009-12-10 10:13:34 51°19.896 2°59.936 7.9 308 10.3 102480 42
2009-12-10 10:13:39 51°19.903 2°59.958 7 266 10.3 102490 43
2009-12-10 10:13:44 51°19.908 2°59.981 6.9 283 10.3 102490 43
2009-12-10 10:13:48 51°19.911 2°60 7.4 266 10.3 102470 41
2009-12-10 10:13:54 51°19.92 3°0.025 5.9 304 10.3 102470 41
2009-12-10 10:13:59 51°19.923 3°0.049 9 258 10.4 102480 41
2009-12-10 10:14:03 51°19.928 3°0.068 11.7 280 10.4 102480 41
2009-12-10 10:14:08 51°19.935 3°0.089 5.4 265 10.3 102480 44
2009-12-10 10:14:14 51°19.939 3°0.118 7.1 279 10.3 102480 44
2009-12-10 10:14:18 51°19.944 3°0.136 5.4 263 10.3 102490 42
2009-12-10 10:14:23 51°19.948 3°0.16 6.7 303 10.3 102490 42
2009-12-10 10:14:28 51°19.954 3°0.182 6.2 262 10.3 102460 44
2009-12-10 10:14:34 51°19.959 3°0.211 7.4 278 10.3 102460 44
2009-12-10 10:14:38 51°19.963 3°0.229 7.6 259 10.3 102470 44
2009-12-10 10:14:43 51°19.967 3°0.252 8.5 310 10.3 102470 44
2009-12-10 10:14:49 51°19.976 3°0.278 6.6 265 10.3 102470 41
2009-12-10 10:14:54 51°19.981 3°0.301 9 279 10.3 102470 41
2009-12-10 10:14:58 51°19.986 3°0.318 6.1 262 10.3 102470 43
2009-12-10 10:15:03 51°19.991 3°0.342 8 282 10.3 102470 43
2009-12-10 10:15:09 51°20 3°0.367 6.8 258 10.3 102470 40
2009-12-10 10:15:14 51°20.004 3°0.391 8.2 281 10.3 102470 40
2009-12-10 10:15:18 51°20.01 3°0.408 7.5 262 10.3 102460 43
2009-12-10 10:15:23 51°20.018 3°0.429 4.5 284 10.3 102460 43
2009-12-10 10:15:28 51°20.022 3°0.452 8.7 261 10.3 102460 42
2009-12-10 10:15:34 51°20.032 3°0.477 8.6 306 10.3 102460 42
2009-12-10 10:15:39 51°20.037 3°0.499 8.6 259 10.3 102470 41
2009-12-10 10:15:43 51°20.042 3°0.517 9.4 283 10.3 102470 41
2009-12-10 10:15:48 51°20.049 3°0.538 9.8 260 10.4 102490 43
2009-12-10 10:15:54 51°20.056 3°0.564 7.5 283 10.4 102490 43
2009-12-10 10:15:59 51°20.063 3°0.587 10.9 261 10.4 102470 44
2009-12-10 10:16:03 51°20.07 3°0.602 7.8 283 10.4 102470 44
2009-12-10 10:16:08 51°20.076 3°0.624 9.5 261 10.4 102470 43
2009-12-10 10:16:13 51°20.083 3°0.646 9 283 10.4 102470 43
2009-12-10 10:16:19 51°20.092 3°0.671 10 262 10.4 102480 42
2009-12-10 10:16:23 51°20.097 3°0.689 6.4 282 10.4 102480 42
2009-12-10 10:16:28 51°20.103 3°0.711 8.3 261 10.4 102490 42
2009-12-10 10:16:34 51°20.11 3°0.738 7.3 280 10.4 102490 42
2009-12-10 10:16:39 51°20.119 3°0.758 8.7 260 10.4 102480 44
2009-12-10 10:16:43 51°20.122 3°0.778 8.8 309 10.4 102480 44
2009-12-10 10:16:49 51°20.132 3°0.802 8.1 260 10.4 102480 43
2009-12-10 10:16:54 51°20.135 3°0.827 10.5 283 10.4 102480 43
2009-12-10 10:16:58 51°20.143 3°0.843 6.8 263 10.4 102480 44
2009-12-10 10:17:03 51°20.149 3°0.865 8.4 305 10.4 102480 44
2009-12-10 10:17:09 51°20.156 3°0.891 6.6 265 10.4 102470 42
2009-12-10 10:17:14 51°20.163 3°0.913 5.9 285 10.4 102470 42
2009-12-10 10:17:18 51°20.166 3°0.932 11.6 259 10.4 102460 41
2009-12-10 10:17:23 51°20.175 3°0.951 9.3 306 10.4 102460 41
2009-12-10 10:17:29 51°20.181 3°0.978 9.4 261 10.4 102480 42
2009-12-10 10:17:34 51°20.189 3°0.999 9.6 282 10.4 102480 42
2009-12-10 10:17:39 51°20.195 3°1.021 9.6 256 10.4 102490 42
2009-12-10 10:17:43 51°20.201 3°1.038 12.5 283 10.4 102490 42
2009-12-10 10:17:49 51°20.208 3°1.064 6.8 263 10.4 102490 41
2009-12-10 10:17:54 51°20.214 3°1.085 9.9 280 10.4 102490 41
2009-12-10 10:17:58 51°20.219 3°1.103 8.8 261 10.4 102480 41
2009-12-10 10:18:03 51°20.225 3°1.125 9.5 279 10.4 102480 41
2009-12-10 10:18:09 51°20.233 3°1.151 9.6 262 10.4 102480 41
2009-12-10 10:18:14 51°20.238 3°1.174 9.9 307 10.4 102480 41
2009-12-10 10:18:18 51°20.244 3°1.191 10.2 258 10.3 102470 43
2009-12-10 10:18:23 51°20.252 3°1.211 11.1 281 10.3 102470 43
2009-12-10 10:18:28 51°20.256 3°1.235 8.9 261 10.4 102480 42
2009-12-10 10:18:34 51°20.267 3°1.258 6.9 279 10.4 102480 42
2009-12-10 10:18:39 51°20.271 3°1.282 11.3 257 10.4 102480 43
2009-12-10 10:18:43 51°20.279 3°1.296 7.4 308 10.4 102480 43
2009-12-10 10:18:48 51°20.283 3°1.32 9.5 258 10.3 102490 43
2009-12-10 10:18:54 51°20.293 3°1.344 7.7 282 10.3 102490 43
2009-12-10 10:18:58 51°20.296 3°1.363 8.9 259 10.4 102490 41
2009-12-10 10:19:03 51°20.304 3°1.383 7.4 307 10.4 102490 41
2009-12-10 10:19:09 51°20.309 3°1.411 10.4 258 10.4 102490 43
2009-12-10 10:19:14 51°20.318 3°1.431 7.8 279 10.4 102490 43
2009-12-10 10:19:18 51°20.32 3°1.45 13 260 10.4 102490 41
2009-12-10 10:19:23 51°20.328 3°1.47 7 304 10.4 102490 41
2009-12-10 10:19:29 51°20.334 3°1.497 8.7 260 10.4 102490 42
2009-12-10 10:19:34 51°20.341 3°1.517 9.9 281 10.4 102490 42
2009-12-10 10:19:38 51°20.346 3°1.534 8.3 257 10.4 102480 42
2009-12-10 10:19:43 51°20.351 3°1.558 7.7 -999 10.4 102480 42
2009-12-10 10:19:49 51°20.36 3°1.581 5.2 262 10.4 102480 42
2009-12-10 10:19:54 51°20.364 3°1.604 7.5 277 10.4 102480 42
2009-12-10 10:19:59 51°20.372 3°1.625 5.4 264 10.4 102480 43
2009-12-10 10:20:03 51°20.376 3°1.642 6.7 280 10.4 102480 43
2009-12-10 10:20:08 51°20.382 3°1.665 7 262 10.4 102470 41
2009-12-10 10:20:14 51°20.391 3°1.689 5.5 286 10.4 102470 41
2009-12-10 10:20:19 51°20.395 3°1.712 7.8 263 10.4 102480 43
2009-12-10 10:20:24 51°20.402 3°1.733 7 281 10.4 102480 43
2009-12-10 10:20:28 51°20.406 3°1.751 9.8 260 10.3 102480 41
2009-12-10 10:20:34 51°20.414 3°1.777 5.9 286 10.3 102480 41
2009-12-10 10:20:39 51°20.419 3°1.8 6.1 265 10.4 102480 41
2009-12-10 10:20:43 51°20.424 3°1.816 8.5 -999 10.4 102480 41
2009-12-10 10:20:48 51°20.429 3°1.839 8 262 10.4 102490 43
2009-12-10 10:20:53 51°20.435 3°1.861 7.2 280 10.4 102490 43
2009-12-10 10:20:59 51°20.441 3°1.888 5.5 266 10.4 102480 42
2009-12-10 10:21:03 51°20.445 3°1.906 6.8 286 10.4 102480 42
2009-12-10 10:21:08 51°20.453 3°1.926 6.6 262 10.3 102490 44
2009-12-10 10:21:13 51°20.457 3°1.95 6.8 284 10.3 102490 44
2009-12-10 10:21:19 51°20.464 3°1.976 6 263 10.3 102480 44
2009-12-10 10:21:23 51°20.469 3°1.993 5.2 55 10.3 102480 44
2009-12-10 10:21:28 51°20.474 3°2.015 4.7 259 10.3 102480 42
2009-12-10 10:21:33 51°20.48 3°2.037 5.4 284 10.3 102480 42
2009-12-10 10:21:39 51°20.488 3°2.063 3.9 264 10.3 102480 44
2009-12-10 10:21:43 51°20.491 3°2.081 6.4 306 10.3 102480 44
2009-12-10 10:21:49 51°20.5 3°2.105 7.6 259 10.3 102490 43
2009-12-10 10:21:54 51°20.505 3°2.127 5.1 285 10.3 102490 43
2009-12-10 10:21:58 51°20.511 3°2.145 3.4 261 10.3 102480 44
2009-12-10 10:22:03 51°20.517 3°2.166 6.3 277 10.3 102480 44
2009-12-10 10:22:08 51°20.522 3°2.189 6.9 263 10.3 102480 41
2009-12-10 10:22:14 51°20.531 3°2.214 6.8 285 10.3 102480 41
2009-12-10 10:22:18 51°20.533 3°2.233 5.7 261 10.3 102480 43
2009-12-10 10:22:23 51°20.541 3°2.253 3.7 284 10.3 102480 43
2009-12-10 10:22:28 51°20.546 3°2.275 6.6 262 10.3 102480 43
2009-12-10 10:22:34 51°20.554 3°2.301 7.7 283 10.3 102480 43
2009-12-10 10:22:39 51°20.56 3°2.323 4.2 265 10.3 102490 41
2009-12-10 10:22:43 51°20.565 3°2.34 6 -999 10.3 102490 41
2009-12-10 10:22:48 51°20.569 3°2.363 10.1 259 10.3 102480 43
2009-12-10 10:22:54 51°20.579 3°2.387 5.3 286 10.3 102480 43
2009-12-10 10:22:59 51°20.585 3°2.409 5.6 263 10.3 102480 41
2009-12-10 10:23:03 51°20.589 3°2.426 6.2 280 10.3 102480 41
2009-12-10 10:23:08 51°20.597 3°2.446 4 264 10.3 102490 41
2009-12-10 10:23:13 51°20.601 3°2.47 10 284 10.3 102490 41
2009-12-10 10:23:19 51°20.61 3°2.494 4.4 265 10.3 102470 44
2009-12-10 10:23:23 51°20.614 3°2.512 7.4 309 10.3 102470 44
2009-12-10 10:23:28 51°20.621 3°2.533 6.7 264 10.3 102470 43
2009-12-10 10:23:33 51°20.626 3°2.555 8.3 284 10.3 102470 43
2009-12-10 10:23:39 51°20.635 3°2.58 6.2 262 10.2 102470 41
2009-12-10 10:23:43 51°20.638 3°2.598 6.2 310 10.2 102470 41
2009-12-10 10:23:48 51°20.647 3°2.618 4.5 260 10.3 102470 42
2009-12-10 10:23:54 51°20.653 3°2.644 6 280 10.3 102470 42
2009-12-10 10:23:58 51°20.659 3°2.661 7.5 261 10.2 102470 42
2009-12-10 10:24:03 51°20.663 3°2.684 5.7 285 10.2 102470 42
2009-12-10 10:24:08 51°20.672 3°2.704 4.5 264 10.3 102470 43
2009-12-10 10:24:14 51°20.676 3°2.732 6.7 280 10.3 102470 43
2009-12-10 10:24:18 51°20.682 3°2.748 5.5 264 10.3 102480 44
2009-12-10 10:24:23 51°20.686 3°2.77 6.5 286 10.3 102480 44
2009-12-10 10:24:29 51°20.694 3°2.796 4.8 262 10.3 102470 43
2009-12-10 10:24:34 51°20.698 3°2.819 7.2 282 10.3 102470 43
2009-12-10 10:24:38 51°20.702 3°2.837 6.5 261 10.3 102480 42
2009-12-10 10:24:43 51°20.708 3°2.859 8.8 -999 10.3 102480 42
2009-12-10 10:24:48 51°20.715 3°2.879 6.5 259 10.3 102480 44
2009-12-10 10:24:54 51°20.721 3°2.906 4.7 282 10.3 102480 44
2009-12-10 10:24:59 51°20.727 3°2.928 5 269 10.3 102480 44
2009-12-10 10:25:03 51°20.73 3°2.946 5.2 282 10.3 102480 44
2009-12-10 10:25:08 51°20.737 3°2.967 6.1 273 10.3 102480 43
2009-12-10 10:25:13 51°20.74 3°2.99 5.9 278 10.3 102480 43
2009-12-10 10:25:19 51°20.747 3°3.016 4.1 267 10.3 102480 42
2009-12-10 10:25:23 51°20.751 3°3.035 5.7 284 10.3 102480 42
2009-12-10 10:25:28 51°20.755 3°3.057 7.8 270 10.3 102480 43
2009-12-10 10:25:34 51°20.761 3°3.084 7.5 279 10.3 102480 43
2009-12-10 10:25:38 51°20.763 3°3.103 6.6 266 10.3 102490 44
2009-12-10 10:25:43 51°20.77 3°3.123 5.8 309 10.3 102490 44
2009-12-10 10:25:49 51°20.774 3°3.151 4.2 264 10.3 102480 43
2009-12-10 10:25:54 51°20.779 3°3.173 7.2 284 10.3 102480 43
2009-12-10 10:25:58 51°20.784 3°3.19 5.6 264 10.3 102490 39
2009-12-10 10:26:03 51°20.786 3°3.214 6.8 308 10.3 102490 39
2009-12-10 10:26:09 51°20.794 3°3.238 4.2 266 10.3 102490 44
2009-12-10 10:26:14 51°20.796 3°3.262 4.8 280 10.3 102490 44
2009-12-10 10:26:18 51°20.802 3°3.278 3.3 262 10.3 102480 43
2009-12-10 10:26:23 51°20.807 3°3.3 5.7 281 10.3 102480 43
2009-12-10 10:26:29 51°20.812 3°3.326 6.4 264 10.2 102480 41
2009-12-10 10:26:34 51°20.818 3°3.347 7.2 303 10.2 102480 41
2009-12-10 10:26:39 51°20.822 3°3.37 5.2 261 10.3 102480 44
2009-12-10 10:26:43 51°20.827 3°3.387 8.4 -999 10.3 102480 44
2009-12-10 10:26:49 51°20.832 3°3.413 6.5 265 10.2 102480 41
2009-12-10 10:26:54 51°20.837 3°3.435 6 304 10.2 102480 41
2009-12-10 10:26:59 51°20.843 3°3.456 6.2 260 10.2 102490 42
2009-12-10 10:27:03 51°20.846 3°3.475 10.7 280 10.2 102490 42
2009-12-10 10:27:08 51°20.85 3°3.497 7.6 262 10.2 102480 44
2009-12-10 10:27:14 51°20.856 3°3.523 6.9 304 10.2 102480 44
2009-12-10 10:27:19 51°20.861 3°3.545 6.7 264 10.2 102480 44
2009-12-10 10:27:23 51°20.864 3°3.564 7.8 281 10.2 102480 44
2009-12-10 10:27:28 51°20.871 3°3.583 7.2 270 10.2 102480 44
2009-12-10 10:27:33 51°20.874 3°3.606 6.7 279 10.2 102480 44
2009-12-10 10:27:39 51°20.882 3°3.631 7.3 264 10.2 102480 42
2009-12-10 10:27:43 51°20.885 3°3.648 7.6 279 10.2 102480 42
2009-12-10 10:27:48 51°20.891 3°3.669 4.7 268 10.2 102480 42
2009-12-10 10:27:53 51°20.895 3°3.692 8.9 285 10.2 102480 42
2009-12-10 10:27:59 51°20.902 3°3.717 5.8 266 10.2 102480 41
2009-12-10 10:28:03 51°20.904 3°3.736 8.3 301 10.2 102480 41
2009-12-10 10:28:08 51°20.911 3°3.756 5.8 264 10.2 102480 43
2009-12-10 10:28:13 51°20.915 3°3.778 5.6 279 10.2 102480 43
2009-12-10 10:28:19 51°20.921 3°3.805 6.7 270 10.2 102490 41
2009-12-10 10:28:23 51°20.925 3°3.823 7 302 10.2 102490 41
2009-12-10 10:28:28 51°20.93 3°3.845 5.8 267 10.2 102480 43
2009-12-10 10:28:34 51°20.935 3°3.872 6.9 282 10.2 102480 43
2009-12-10 10:28:39 51°20.94 3°3.894 6.9 262 10.2 102490 42
2009-12-10 10:28:43 51°20.945 3°3.911 6.8 -999 10.2 102490 42
2009-12-10 10:28:49 51°20.949 3°3.939 6.7 262 10.2 102490 41
2009-12-10 10:28:54 51°20.955 3°3.96 5.1 284 10.2 102490 41
2009-12-10 10:28:58 51°20.959 3°3.978 6.7 264 10.2 102490 44
2009-12-10 10:29:03 51°20.964 3°4 7.6 282 10.2 102490 44
2009-12-10 10:29:08 51°20.968 3°4.022 6.7 265 10.2 102490 44
2009-12-10 10:29:14 51°20.975 3°4.048 8.3 307 10.2 102490 44
2009-12-10 10:29:18 51°20.977 3°4.067 6 263 10.2 102490 44
2009-12-10 10:29:23 51°20.984 3°4.088 6.6 309 10.2 102490 44
2009-12-10 10:29:28 51°20.988 3°4.11 6.8 266 10.2 102490 43
2009-12-10 10:29:33 51°20.991 3°4.133 5.7 281 10.2 102490 43
2009-12-10 10:29:39 51°20.999 3°4.158 6 270 10.2 102500 44
2009-12-10 10:29:43 51°21.003 3°4.176 7.9 285 10.2 102500 44
2009-12-10 10:29:48 51°21.006 3°4.199 7.8 262 10.1 102490 43
2009-12-10 10:29:54 51°21.015 3°4.224 6.1 283 10.1 102490 43
2009-12-10 10:29:59 51°21.018 3°4.248 6.6 263 10.1 102490 42
2009-12-10 10:30:03 51°21.023 3°4.264 8.1 296 10.1 102490 42
2009-12-10 10:30:09 51°21.028 3°4.29 7.1 256 10.1 102490 43
2009-12-10 10:30:14 51°21.033 3°4.312 6.3 286 10.1 102490 43
2009-12-10 10:30:18 51°21.037 3°4.329 5.4 265 10.1 102500 44
2009-12-10 10:30:24 51°21.043 3°4.355 7.8 279 10.1 102500 44
2009-12-10 10:30:29 51°21.048 3°4.377 6.9 266 10.2 102490 42
2009-12-10 10:30:34 51°21.053 3°4.4 6 309 10.2 102490 42
2009-12-10 10:30:38 51°21.056 3°4.417 6.3 263 10.1 102490 44
2009-12-10 10:30:44 51°21.063 3°4.443 6.4 -999 10.1 102490 44
2009-12-10 10:30:48 51°21.066 3°4.461 4.3 265 10.1 102500 42
2009-12-10 10:30:54 51°21.072 3°4.487 6.2 279 10.1 102500 42
2009-12-10 10:30:59 51°21.077 3°4.51 5.9 265 10.2 102490 41
2009-12-10 10:31:03 51°21.08 3°4.528 7.5 280 10.2 102490 41
2009-12-10 10:31:08 51°21.087 3°4.548 7 268 10.2 102500 41
2009-12-10 10:31:14 51°21.09 3°4.577 7.4 283 10.2 102500 41
2009-12-10 10:31:18 51°21.096 3°4.593 7.4 268 10.2 102490 44
2009-12-10 10:31:23 51°21.098 3°4.616 9.1 282 10.2 102490 44
2009-12-10 10:31:28 51°21.105 3°4.638 4.1 263 10.1 102480 42
2009-12-10 10:31:34 51°21.11 3°4.664 6.5 307 10.1 102480 42
2009-12-10 10:31:39 51°21.114 3°4.686 5.1 262 10.1 102480 44
2009-12-10 10:31:43 51°21.119 3°4.704 7.2 278 10.1 102480 44
2009-12-10 10:31:48 51°21.122 3°4.727 8.2 267 10.1 102490 44
2009-12-10 10:31:54 51°21.128 3°4.754 8.1 302 10.1 102490 44
2009-12-10 10:31:59 51°21.133 3°4.775 7.4 263 10.1 102500 41
2009-12-10 10:32:03 51°21.136 3°4.793 7.1 280 10.1 102500 41
2009-12-10 10:32:09 51°21.142 3°4.819 8.1 267 10.1 102490 43
2009-12-10 10:32:14 51°21.146 3°4.842 6.9 284 10.1 102490 43
2009-12-10 10:32:18 51°21.15 3°4.86 5.8 263 10.1 102510 43
2009-12-10 10:32:23 51°21.156 3°4.88 5.4 307 10.1 102510 43
2009-12-10 10:32:29 51°21.16 3°4.908 7 262 10.1 102500 41
2009-12-10 10:32:34 51°21.167 3°4.929 4.9 280 10.1 102500 41
2009-12-10 10:32:38 51°21.169 3°4.948 6.6 263 10.1 102500 41
2009-12-10 10:32:43 51°21.176 3°4.968 4.5 283 10.1 102500 41
2009-12-10 10:32:49 51°21.18 3°4.996 7.3 263 10.1 102500 42
2009-12-10 10:32:54 51°21.188 3°5.016 7.2 284 10.1 102500 42
2009-12-10 10:32:58 51°21.19 3°5.035 6 264 10.1 102500 44
2009-12-10 10:33:03 51°21.195 3°5.055 5.7 284 10.1 102500 44
2009-12-10 10:33:09 51°21.201 3°5.082 6.7 269 10.1 102490 43
2009-12-10 10:33:14 51°21.206 3°5.103 6.3 285 10.1 102490 43
2009-12-10 10:33:18 51°21.21 3°5.121 4.4 263 10.1 102500 43
2009-12-10 10:33:23 51°21.213 3°5.144 8.1 279 10.1 102500 43
2009-12-10 10:33:29 51°21.221 3°5.168 5 268 10.1 102500 43
2009-12-10 10:33:34 51°21.224 3°5.192 5 280 10.1 102500 43
2009-12-10 10:33:39 51°21.232 3°5.211 7 268 10.1 102490 44
2009-12-10 10:33:43 51°21.234 3°5.229 5.8 284 10.1 102490 44
2009-12-10 10:33:48 51°21.239 3°5.252 10.1 272 10.1 102490 43
2009-12-10 10:33:54 51°21.246 3°5.276 7.2 306 10.1 102490 43
2009-12-10 10:33:59 51°21.249 3°5.298 7.8 261 10.1 102480 43
2009-12-10 10:34:03 51°21.253 3°5.315 6.8 284 10.1 102480 43
2009-12-10 10:34:08 51°21.259 3°5.336 6.1 264 10.1 102500 41
2009-12-10 10:34:14 51°21.263 3°5.362 7.4 277 10.1 102500 41
2009-12-10 10:34:19 51°21.268 3°5.384 4.4 265 10.1 102510 43